owner,sensor,date,latitude,longitude,vertical_datum,wind_speed,wind_to_direction,wind_speed_of_gust,qcFlag 
TABS,ioos:station:wmo:42045:1,2006-03-01T00:09:00Z,26.2168,-96.4998,4.0,5.358180661,159.2314519,8.21,'11111222,11111222,11111222' 
TABS,ioos:station:wmo:42045:1,2006-03-01T00:39:00Z,26.2168,-96.4998,4.0,5.375732508,159.6438054,7.77,'11111222,11111222,11111222' 
TABS,ioos:station:wmo:42045:1,2006-03-01T01:09:00Z,26.2168,-96.4998,4.0,5.040525766,165.0541839,7.89,'11111222,11111222,11111222' 
TABS,ioos:station:wmo:42045:1,2006-03-01T01:39:00Z,26.2168,-96.4998,4.0,5.160852643,161.705735,7.91,'11111222,11111222,11111222' 
TABS,ioos:station:wmo:42045:1,2006-03-01T02:09:00Z,26.2168,-96.4998,4.0,5.012434538,162.1075186,7.61,'11111222,11111222,11111222' 
TABS,ioos:station:wmo:42045:1,2006-03-01T02:39:00Z,26.2168,-96.4998,4.0,5.079576754,167.0309873,8.05,'11111222,11111222,11111222' 
TABS,ioos:station:wmo:42045:1,2006-03-01T03:09:00Z,26.2168,-96.4998,4.0,4.803602815,163.67802,7.11,'11111222,11111222,11111222' 
TABS,ioos:station:wmo:42045:1,2006-03-01T03:39:00Z,26.2168,-96.4998,4.0,4.751473456,166.4904381,7.7,'11111222,11111222,11111222' 
TABS,ioos:station:wmo:42045:1,2006-03-01T04:09:00Z,26.2168,-96.4998,4.0,4.94291412,166.188908,8.27,'11111222,11111222,11111222' 
TABS,ioos:station:wmo:42045:1,2006-03-01T04:39:00Z,26.2168,-96.4998,4.0,4.97205189,166.2714369,7.54,'11111222,11111222,11111222' 
TABS,ioos:station:wmo:42045:1,2006-03-01T05:09:00Z,26.2168,-96.4998,4.0,4.882560804,161.4910876,7.59,'11111222,11111222,11111222' 
TABS,ioos:station:wmo:42045:1,2006-03-01T05:39:00Z,26.2168,-96.4998,4.0,5.051108789,160.4532559,7.57,'11111222,11111222,11111222' 
TABS,ioos:station:wmo:42045:1,2006-03-01T06:09:00Z,26.2168,-96.4998,4.0,5.603784436,161.0479766,8.29,'11111222,11111222,11111222' 
TABS,ioos:station:wmo:42045:1,2006-03-01T06:39:00Z,26.2168,-96.4998,4.0,5.392559689,169.9614797,8.2,'11111222,11111222,11111222' 
TABS,ioos:station:wmo:42045:1,2006-03-01T07:09:00Z,26.2168,-96.4998,4.0,5.509056181,169.118637,8.44,'11111222,11111222,11111222' 
TABS,ioos:station:wmo:42045:1,2006-03-01T07:39:00Z,26.2168,-96.4998,4.0,5.538519658,169.1772245,8.31,'11111222,11111222,11111222' 
TABS,ioos:station:wmo:42045:1,2006-03-01T08:09:00Z,26.2168,-96.4998,4.0,5.500981731,174.9943896,8.3,'11111222,11111222,11111222' 
TABS,ioos:station:wmo:42045:1,2006-03-01T08:39:00Z,26.2168,-96.4998,4.0,5.756405128,167.0503863,8.74,'11111222,11111222,11111222' 
TABS,ioos:station:wmo:42045:1,2006-03-01T09:09:00Z,26.2168,-96.4998,4.0,5.382425104,170.590411,8.67,'11111222,11111222,11111222' 
TABS,ioos:station:wmo:42045:1,2006-03-01T09:39:00Z,26.2168,-96.4998,4.0,5.152407204,174.6547776,7.87,'11111222,11111222,11111222' 
TABS,ioos:station:wmo:42045:1,2006-03-01T10:09:00Z,26.2168,-96.4998,4.0,4.925403537,170.6526545,8.15,'11111222,11111222,11111222' 
TABS,ioos:station:wmo:42045:1,2006-03-01T10:39:00Z,26.2168,-96.4998,4.0,5.289697534,169.4338102,8.11,'11111222,11111222,11111222' 
TABS,ioos:station:wmo:42045:1,2006-03-01T11:09:00Z,26.2168,-96.4998,4.0,5.335400641,174.407171,7.96,'11111222,11111222,11111222' 
TABS,ioos:station:wmo:42045:1,2006-03-01T11:39:00Z,26.2168,-96.4998,4.0,4.998529784,175.0652361,7.25,'11111222,11111222,11111222' 
TABS,ioos:station:wmo:42045:1,2006-03-01T12:09:00Z,26.2168,-96.4998,4.0,4.800166664,179.5227578,7.49,'11111222,11111222,11111222' 
TABS,ioos:station:wmo:42045:1,2006-03-01T12:39:00Z,26.2168,-96.4998,4.0,4.771425364,176.0343789,7.59,'11111222,11111222,11111222' 
TABS,ioos:station:wmo:42045:1,2006-03-01T13:09:00Z,26.2168,-96.4998,4.0,5.214757904,168.4963748,8.04,'11111222,11111222,11111222' 
TABS,ioos:station:wmo:42045:1,2006-03-01T13:39:00Z,26.2168,-96.4998,4.0,5.365743192,168.6065389,8.0,'11111222,11111222,11111222' 
TABS,ioos:station:wmo:42045:1,2006-03-01T14:09:00Z,26.2168,-96.4998,4.0,5.217144813,165.4579148,8.47,'11111222,11111222,11111222' 
TABS,ioos:station:wmo:42045:1,2006-03-01T14:39:00Z,26.2168,-96.4998,4.0,4.816845441,166.3101929,7.63,'11111222,11111222,11111222' 
TABS,ioos:station:wmo:42045:1,2006-03-01T15:09:00Z,26.2168,-96.4998,4.0,5.013282358,169.5420549,8.03,'11111222,11111222,11111222' 
TABS,ioos:station:wmo:42045:1,2006-03-01T16:09:00Z,26.2168,-96.4998,4.0,5.144803203,166.8553736,8.05,'11111222,11111222,11111222' 
TABS,ioos:station:wmo:42045:1,2006-03-01T16:39:00Z,26.2168,-96.4998,4.0,5.157567256,167.2304423,7.74,'11111222,11111222,11111222' 
TABS,ioos:station:wmo:42045:1,2006-03-01T17:09:00Z,26.2168,-96.4998,4.0,5.544231236,168.8727095,8.33,'11111222,11111222,11111222' 
TABS,ioos:station:wmo:42045:1,2006-03-01T17:39:00Z,26.2168,-96.4998,4.0,4.715347283,166.7597215,7.06,'11111222,11111222,11111222' 
TABS,ioos:station:wmo:42045:1,2006-03-01T18:09:00Z,26.2168,-96.4998,4.0,4.369553753,164.4691168,7.15,'11111222,11111222,11111222' 
TABS,ioos:station:wmo:42045:1,2006-03-01T18:39:00Z,26.2168,-96.4998,4.0,4.295323038,166.1257601,6.76,'11111222,11111222,11111222' 
TABS,ioos:station:wmo:42045:1,2006-03-01T19:09:00Z,26.2168,-96.4998,4.0,4.165585193,175.0423968,6.19,'11111222,11111222,11111222' 
TABS,ioos:station:wmo:42045:1,2006-03-01T19:39:00Z,26.2168,-96.4998,4.0,4.23,180.0002105,6.47,'11111222,11111222,11111222' 
TABS,ioos:station:wmo:42045:1,2006-03-01T20:09:00Z,26.2168,-96.4998,4.0,3.829529997,175.9572418,6.38,'11111222,11111222,11111222' 
TABS,ioos:station:wmo:42045:1,2006-03-01T20:39:00Z,26.2168,-96.4998,4.0,3.353937984,173.1506685,5.7,'11111222,11111222,11111222' 
TABS,ioos:station:wmo:42045:1,2006-03-01T21:09:00Z,26.2168,-96.4998,4.0,3.76175491,168.0331361,6.15,'11111222,11111222,11111222' 
TABS,ioos:station:wmo:42045:1,2006-03-01T22:09:00Z,26.2168,-96.4998,4.0,3.368159735,160.7583772,5.25,'11111222,11111222,11111222' 
TABS,ioos:station:wmo:42045:1,2006-03-01T22:39:00Z,26.2168,-96.4998,4.0,3.5013426,164.2571503,5.79,'11111222,11111222,11111222' 
TABS,ioos:station:wmo:42045:1,2006-03-01T23:09:00Z,26.2168,-96.4998,4.0,4.416627673,166.247172,6.47,'11111222,11111222,11111222' 
TABS,ioos:station:wmo:42045:1,2006-03-01T23:39:00Z,26.2168,-96.4998,4.0,4.589400832,168.0537123,7.05,'11111222,11111222,11111222' 
TABS,ioos:station:wmo:42045:1,2006-03-02T00:09:00Z,26.2168,-96.4998,4.0,4.974706021,162.3301726,7.76,'11111222,11111222,11111222' 
TABS,ioos:station:wmo:42045:1,2006-03-02T00:39:00Z,26.2168,-96.4998,4.0,4.982629828,158.9462369,7.33,'11111222,11111222,11111222' 
TABS,ioos:station:wmo:42045:1,2006-03-02T01:09:00Z,26.2168,-96.4998,4.0,5.333216665,158.4382474,8.15,'11111222,11111222,11111222' 
TABS,ioos:station:wmo:42045:1,2006-03-02T01:39:00Z,26.2168,-96.4998,4.0,5.137012751,159.1309115,8.23,'11111222,11111222,11111222' 
TABS,ioos:station:wmo:42045:1,2006-03-02T02:09:00Z,26.2168,-96.4998,4.0,4.850247416,159.7345604,7.73,'11111222,11111222,11111222' 
TABS,ioos:station:wmo:42045:1,2006-03-02T02:39:00Z,26.2168,-96.4998,4.0,5.196046574,162.297589,7.88,'11111222,11111222,11111222' 
TABS,ioos:station:wmo:42045:1,2006-03-02T03:09:00Z,26.2168,-96.4998,4.0,4.936243511,168.667541,7.21,'11111222,11111222,11111222' 
TABS,ioos:station:wmo:42045:1,2006-03-02T03:39:00Z,26.2168,-96.4998,4.0,5.266213061,166.9403857,8.02,'11111222,11111222,11111222' 
TABS,ioos:station:wmo:42045:1,2006-03-02T04:09:00Z,26.2168,-96.4998,4.0,5.27524407,165.6215472,8.07,'11111222,11111222,11111222' 
TABS,ioos:station:wmo:42045:1,2006-03-02T04:39:00Z,26.2168,-96.4998,4.0,5.739477328,164.8501927,8.42,'11111222,11111222,11111222' 
TABS,ioos:station:wmo:42045:1,2006-03-02T05:09:00Z,26.2168,-96.4998,4.0,5.740984236,166.3996997,8.53,'11111222,11111222,11111222' 
TABS,ioos:station:wmo:42045:1,2006-03-02T05:39:00Z,26.2168,-96.4998,4.0,5.766402691,169.508758,8.63,'11111222,11111222,11111222' 
TABS,ioos:station:wmo:42045:1,2006-03-02T06:09:00Z,26.2168,-96.4998,4.0,4.839442117,171.8031539,7.28,'11111222,11111222,11111222' 
TABS,ioos:station:wmo:42045:1,2006-03-02T06:39:00Z,26.2168,-96.4998,4.0,5.060948528,174.7852944,7.71,'11111222,11111222,11111222' 
TABS,ioos:station:wmo:42045:1,2006-03-02T07:09:00Z,26.2168,-96.4998,4.0,5.192783454,181.8762757,8.21,'11111222,11111222,11111222' 
TABS,ioos:station:wmo:42045:1,2006-03-02T07:39:00Z,26.2168,-96.4998,4.0,4.68385525,184.4082875,7.75,'11111222,11111222,11111222' 
TABS,ioos:station:wmo:42045:1,2006-03-02T08:09:00Z,26.2168,-96.4998,4.0,4.59039214,179.2512904,7.37,'11111222,11111222,11111222' 
TABS,ioos:station:wmo:42045:1,2006-03-02T08:39:00Z,26.2168,-96.4998,4.0,4.18646629,186.4461824,6.45,'11111222,11111222,11111222' 
TABS,ioos:station:wmo:42045:1,2006-03-02T09:09:00Z,26.2168,-96.4998,4.0,4.282919565,187.1086171,6.56,'11111222,11111222,11111222' 
TABS,ioos:station:wmo:42045:1,2006-03-02T09:39:00Z,26.2168,-96.4998,4.0,4.074911042,182.8134583,6.82,'11111222,11111222,11111222' 
TABS,ioos:station:wmo:42045:1,2006-03-02T10:09:00Z,26.2168,-96.4998,4.0,3.93062336,181.0206357,5.98,'11111222,11111222,11111222' 
TABS,ioos:station:wmo:42045:1,2006-03-02T10:39:00Z,26.2168,-96.4998,4.0,4.794090112,174.2539547,7.62,'11111222,11111222,11111222' 
TABS,ioos:station:wmo:42045:1,2006-03-02T11:09:00Z,26.2168,-96.4998,4.0,5.382350788,174.7768808,8.58,'11111222,11111222,11111222' 
TABS,ioos:station:wmo:42045:1,2006-03-02T11:39:00Z,26.2168,-96.4998,4.0,4.809750513,171.7522003,7.03,'11111222,11111222,11111222' 
TABS,ioos:station:wmo:42045:1,2006-03-02T12:09:00Z,26.2168,-96.4998,4.0,4.710265385,179.3919993,7.93,'11111222,11111222,11111222' 
TABS,ioos:station:wmo:42045:1,2006-03-02T12:39:00Z,26.2168,-96.4998,4.0,4.901693585,171.6717587,7.69,'11111222,11111222,11111222' 
TABS,ioos:station:wmo:42045:1,2006-03-02T13:09:00Z,26.2168,-96.4998,4.0,4.622910339,167.8881692,6.92,'11111222,11111222,11111222' 
TABS,ioos:station:wmo:42045:1,2006-03-02T13:39:00Z,26.2168,-96.4998,4.0,5.47989051,173.0827088,8.17,'11111222,11111222,11111222' 
TABS,ioos:station:wmo:42045:1,2006-03-02T14:09:00Z,26.2168,-96.4998,4.0,4.723822605,182.3053584,7.76,'11111222,11111222,11111222' 
TABS,ioos:station:wmo:42045:1,2006-03-02T14:39:00Z,26.2168,-96.4998,4.0,4.421911351,178.3155301,6.84,'11111222,11111222,11111222' 
TABS,ioos:station:wmo:42045:1,2006-03-02T15:09:00Z,26.2168,-96.4998,4.0,4.324534657,173.8941309,6.82,'11111222,11111222,11111222' 
TABS,ioos:station:wmo:42045:1,2006-03-02T16:09:00Z,26.2168,-96.4998,4.0,3.635725512,165.5053387,5.58,'11111222,11111222,11111222' 
TABS,ioos:station:wmo:42045:1,2006-03-02T16:39:00Z,26.2168,-96.4998,4.0,4.379589022,170.5379104,6.31,'11111222,11111222,11111222' 
TABS,ioos:station:wmo:42045:1,2006-03-02T17:09:00Z,26.2168,-96.4998,4.0,4.761312844,174.5770045,7.57,'11111222,11111222,11111222' 
TABS,ioos:station:wmo:42045:1,2006-03-02T17:39:00Z,26.2168,-96.4998,4.0,4.231229136,167.4420572,6.38,'11111222,11111222,11111222' 
TABS,ioos:station:wmo:42045:1,2006-03-02T18:09:00Z,26.2168,-96.4998,4.0,4.727631542,161.3736812,7.12,'11111222,11111222,11111222' 
TABS,ioos:station:wmo:42045:1,2006-03-02T18:39:00Z,26.2168,-96.4998,4.0,4.583448483,159.0345476,7.34,'11111222,11111222,11111222' 
TABS,ioos:station:wmo:42045:1,2006-03-02T19:09:00Z,26.2168,-96.4998,4.0,5.332625995,156.223235,8.06,'11111222,11111222,11111222' 
TABS,ioos:station:wmo:42045:1,2006-03-02T19:39:00Z,26.2168,-96.4998,4.0,4.915292463,155.9904355,6.91,'11111222,11111222,11111222' 
TABS,ioos:station:wmo:42045:1,2006-03-02T20:09:00Z,26.2168,-96.4998,4.0,4.117001336,157.7336743,6.29,'11111222,11111222,11111222' 
TABS,ioos:station:wmo:42045:1,2006-03-02T20:39:00Z,26.2168,-96.4998,4.0,3.963079611,157.4471247,6.01,'11111222,11111222,11111222' 
TABS,ioos:station:wmo:42045:1,2006-03-02T21:09:00Z,26.2168,-96.4998,4.0,3.003747659,140.2680005,4.75,'11111222,11111222,11111222' 
TABS,ioos:station:wmo:42045:1,2006-03-02T22:09:00Z,26.2168,-96.4998,4.0,3.168627463,133.7216074,5.07,'11111222,11111222,11111222' 
TABS,ioos:station:wmo:42045:1,2006-03-02T22:39:00Z,26.2168,-96.4998,4.0,3.083715292,130.924069,5.12,'11111222,11111222,11111222' 
TABS,ioos:station:wmo:42045:1,2006-03-02T23:09:00Z,26.2168,-96.4998,4.0,3.741136191,135.9750058,5.33,'11111222,11111222,11111222' 
TABS,ioos:station:wmo:42045:1,2006-03-02T23:39:00Z,26.2168,-96.4998,4.0,3.813200755,133.1938163,5.79,'11111222,11111222,11111222' 
TABS,ioos:station:wmo:42045:1,2006-03-03T00:09:00Z,26.2168,-96.4998,4.0,3.694333499,130.7193743,6.32,'11111222,11111222,11111222' 
TABS,ioos:station:wmo:42045:1,2006-03-03T00:39:00Z,26.2168,-96.4998,4.0,3.809475029,125.2757548,5.72,'11111222,11111222,11111222' 
TABS,ioos:station:wmo:42045:1,2006-03-03T01:09:00Z,26.2168,-96.4998,4.0,4.505873944,133.4715954,7.12,'11111222,11111222,11111222' 
TABS,ioos:station:wmo:42045:1,2006-03-03T01:39:00Z,26.2168,-96.4998,4.0,4.322961948,128.9913238,6.52,'11111222,11111222,11111222' 
TABS,ioos:station:wmo:42045:1,2006-03-03T02:09:00Z,26.2168,-96.4998,4.0,4.754639839,125.9302535,7.51,'11111222,11111222,11111222' 
TABS,ioos:station:wmo:42045:1,2006-03-03T02:39:00Z,26.2168,-96.4998,4.0,5.742978321,127.9278166,8.68,'11111222,11111222,11111222' 
TABS,ioos:station:wmo:42045:1,2006-03-03T03:09:00Z,26.2168,-96.4998,4.0,5.772252593,126.334218,8.6,'11111222,11111222,11111222' 
TABS,ioos:station:wmo:42045:1,2006-03-03T03:39:00Z,26.2168,-96.4998,4.0,5.610142601,133.1946197,8.82,'11111222,11111222,11111222' 
TABS,ioos:station:wmo:42045:1,2006-03-03T04:09:00Z,26.2168,-96.4998,4.0,4.857952243,135.4173072,8.14,'11111222,11111222,11111222' 
TABS,ioos:station:wmo:42045:1,2006-03-03T04:39:00Z,26.2168,-96.4998,4.0,5.021762639,131.6907132,7.52,'11111222,11111222,11111222' 
TABS,ioos:station:wmo:42045:1,2006-03-03T05:09:00Z,26.2168,-96.4998,4.0,4.862612467,130.9978144,7.26,'11111222,11111222,11111222' 
TABS,ioos:station:wmo:42045:1,2006-03-03T05:39:00Z,26.2168,-96.4998,4.0,4.504719747,135.8097764,7.09,'11111222,11111222,11111222' 
TABS,ioos:station:wmo:42045:1,2006-03-03T06:09:00Z,26.2168,-96.4998,4.0,5.006395909,135.3240165,7.75,'11111222,11111222,11111222' 
TABS,ioos:station:wmo:42045:1,2006-03-03T06:39:00Z,26.2168,-96.4998,4.0,5.28125932,139.0695262,8.16,'11111222,11111222,11111222' 
TABS,ioos:station:wmo:42045:1,2006-03-03T07:09:00Z,26.2168,-96.4998,4.0,4.990561091,137.6802834,7.43,'11111222,11111222,11111222' 
TABS,ioos:station:wmo:42045:1,2006-03-03T07:39:00Z,26.2168,-96.4998,4.0,4.466016122,143.2843502,6.86,'11111222,11111222,11111222' 
TABS,ioos:station:wmo:42045:1,2006-03-03T08:09:00Z,26.2168,-96.4998,4.0,4.974434641,140.7108955,7.84,'11111222,11111222,11111222' 
TABS,ioos:station:wmo:42045:1,2006-03-03T08:39:00Z,26.2168,-96.4998,4.0,4.893107397,131.9353138,7.69,'11111222,11111222,11111222' 
TABS,ioos:station:wmo:42045:1,2006-03-03T09:09:00Z,26.2168,-96.4998,4.0,4.501477535,124.0434283,6.81,'11111222,11111222,11111222' 
TABS,ioos:station:wmo:42045:1,2006-03-03T09:39:00Z,26.2168,-96.4998,4.0,4.630388753,126.1277817,7.26,'11111222,11111222,11111222' 
TABS,ioos:station:wmo:42045:1,2006-03-03T10:09:00Z,26.2168,-96.4998,4.0,3.788931248,122.9354595,5.91,'11111222,11111222,11111222' 
TABS,ioos:station:wmo:42045:1,2006-03-03T10:39:00Z,26.2168,-96.4998,4.0,3.480589031,118.1115751,5.78,'11111222,11111222,11111222' 
TABS,ioos:station:wmo:42045:1,2006-03-03T11:09:00Z,26.2168,-96.4998,4.0,4.036731351,118.7240908,6.27,'11111222,11111222,11111222' 
TABS,ioos:station:wmo:42045:1,2006-03-03T11:39:00Z,26.2168,-96.4998,4.0,4.356007346,126.9754584,7.08,'11111222,11111222,11111222' 
TABS,ioos:station:wmo:42045:1,2006-03-03T12:09:00Z,26.2168,-96.4998,4.0,5.082725647,122.220811,7.71,'11111222,11111222,11111222' 
TABS,ioos:station:wmo:42045:1,2006-03-03T12:39:00Z,26.2168,-96.4998,4.0,4.393563474,113.4729331,6.82,'11111222,11111222,11111222' 
TABS,ioos:station:wmo:42045:1,2006-03-03T13:09:00Z,26.2168,-96.4998,4.0,4.693335701,109.2846608,7.1,'11111222,11111222,11111222' 
TABS,ioos:station:wmo:42045:1,2006-03-03T13:39:00Z,26.2168,-96.4998,4.0,5.345540197,104.2965919,7.79,'11111222,11111222,11111222' 
TABS,ioos:station:wmo:42045:1,2006-03-03T14:09:00Z,26.2168,-96.4998,4.0,4.421515577,109.4188463,6.57,'11111222,11111222,11111222' 
TABS,ioos:station:wmo:42045:1,2006-03-03T14:39:00Z,26.2168,-96.4998,4.0,4.305124853,109.824295,6.85,'11111222,11111222,11111222' 
TABS,ioos:station:wmo:42045:1,2006-03-03T15:09:00Z,26.2168,-96.4998,4.0,3.571792267,102.2856117,5.84,'11111222,11111222,11111222' 
TABS,ioos:station:wmo:42045:1,2006-03-03T16:09:00Z,26.2168,-96.4998,4.0,3.414395993,101.1457793,5.22,'11111222,11111222,11111222' 
TABS,ioos:station:wmo:42045:1,2006-03-03T16:39:00Z,26.2168,-96.4998,4.0,3.256762196,95.81603385,5.06,'11111222,11111222,11111222' 
TABS,ioos:station:wmo:42045:1,2006-03-03T17:09:00Z,26.2168,-96.4998,4.0,2.962853354,92.51516768,4.81,'11111222,11111222,11111222' 
TABS,ioos:station:wmo:42045:1,2006-03-03T17:39:00Z,26.2168,-96.4998,4.0,3.55123922,97.60570816,5.66,'11111222,11111222,11111222' 
TABS,ioos:station:wmo:42045:1,2006-03-03T18:09:00Z,26.2168,-96.4998,4.0,3.433380259,96.69074377,5.2,'11111222,11111222,11111222' 
TABS,ioos:station:wmo:42045:1,2006-03-03T18:39:00Z,26.2168,-96.4998,4.0,3.337364229,84.15233731,5.37,'11111222,11111222,11111222' 
TABS,ioos:station:wmo:42045:1,2006-03-03T19:09:00Z,26.2168,-96.4998,4.0,3.515736054,81.8234011,5.64,'11111222,11111222,11111222' 
TABS,ioos:station:wmo:42045:1,2006-03-03T19:39:00Z,26.2168,-96.4998,4.0,3.327897234,82.57561117,4.9,'11111222,11111222,11111222' 
TABS,ioos:station:wmo:42045:1,2006-03-03T20:09:00Z,26.2168,-96.4998,4.0,3.355383734,80.56535134,4.97,'11111222,11111222,11111222' 
TABS,ioos:station:wmo:42045:1,2006-03-03T20:39:00Z,26.2168,-96.4998,4.0,3.648410613,73.60121464,5.5,'11111222,11111222,11111222' 
TABS,ioos:station:wmo:42045:1,2006-03-03T21:09:00Z,26.2168,-96.4998,4.0,2.968164416,85.74893445,4.66,'11111222,11111222,11111222' 
TABS,ioos:station:wmo:42045:1,2006-03-03T22:09:00Z,26.2168,-96.4998,4.0,3.430932818,91.33652026,5.1,'11111222,11111222,11111222' 
TABS,ioos:station:wmo:42045:1,2006-03-03T22:39:00Z,26.2168,-96.4998,4.0,4.120594617,89.02620303,5.65,'11111222,11111222,11111222' 
TABS,ioos:station:wmo:42045:1,2006-03-03T23:09:00Z,26.2168,-96.4998,4.0,3.240061728,89.64590675,5.39,'11111222,11111222,11111222' 
TABS,ioos:station:wmo:42045:1,2006-03-03T23:39:00Z,26.2168,-96.4998,4.0,4.542477298,88.10723952,5.99,'11111222,11111222,11111222' 
TABS,ioos:station:wmo:42045:1,2006-03-04T00:09:00Z,26.2168,-96.4998,4.0,4.585771473,87.12470192,6.71,'11111222,11111222,11111222' 
TABS,ioos:station:wmo:42045:1,2006-03-04T00:39:00Z,26.2168,-96.4998,4.0,4.347194498,86.70278191,6.56,'11111222,11111222,11111222' 
TABS,ioos:station:wmo:42045:1,2006-03-04T01:09:00Z,26.2168,-96.4998,4.0,4.351666348,80.34247023,6.93,'11111222,11111222,11111222' 
TABS,ioos:station:wmo:42045:1,2006-03-04T01:39:00Z,26.2168,-96.4998,4.0,4.469642044,79.16733521,6.75,'11111222,11111222,11111222' 
TABS,ioos:station:wmo:42045:1,2006-03-04T02:09:00Z,26.2168,-96.4998,4.0,4.81750973,82.84507598,7.56,'11111222,11111222,11111222' 
TABS,ioos:station:wmo:42045:1,2006-03-04T02:39:00Z,26.2168,-96.4998,4.0,5.059505905,86.48682854,7.64,'11111222,11111222,11111222' 
TABS,ioos:station:wmo:42045:1,2006-03-04T03:09:00Z,26.2168,-96.4998,4.0,4.720190674,93.7660407,7.14,'11111222,11111222,11111222' 
TABS,ioos:station:wmo:42045:1,2006-03-04T03:39:00Z,26.2168,-96.4998,4.0,4.543500853,94.41845955,6.6,'11111222,11111222,11111222' 
TABS,ioos:station:wmo:42045:1,2006-03-04T04:09:00Z,26.2168,-96.4998,4.0,4.327135311,103.3622185,6.72,'11111222,11111222,11111222' 
TABS,ioos:station:wmo:42045:1,2006-03-04T04:39:00Z,26.2168,-96.4998,4.0,4.049024574,102.6980314,6.87,'11111222,11111222,11111222' 
TABS,ioos:station:wmo:42045:1,2006-03-04T05:09:00Z,26.2168,-96.4998,4.0,3.956425154,105.0903873,6.37,'11111222,11111222,11111222' 
TABS,ioos:station:wmo:42045:1,2006-03-04T05:39:00Z,26.2168,-96.4998,4.0,3.976895774,106.6582275,6.24,'11111222,11111222,11111222' 
TABS,ioos:station:wmo:42045:1,2006-03-04T06:09:00Z,26.2168,-96.4998,4.0,3.890822535,116.8946917,6.19,'11111222,11111222,11111222' 
TABS,ioos:station:wmo:42045:1,2006-03-04T06:39:00Z,26.2168,-96.4998,4.0,4.012991403,108.7513751,5.95,'11111222,11111222,11111222' 
TABS,ioos:station:wmo:42045:1,2006-03-04T07:09:00Z,26.2168,-96.4998,4.0,3.457585863,109.9551656,5.71,'11111222,11111222,11111222' 
TABS,ioos:station:wmo:42045:1,2006-03-04T07:39:00Z,26.2168,-96.4998,4.0,3.446926167,112.696951,5.8,'11111222,11111222,11111222' 
TABS,ioos:station:wmo:42045:1,2006-03-04T08:09:00Z,26.2168,-96.4998,4.0,4.064443381,114.1059853,6.27,'11111222,11111222,11111222' 
TABS,ioos:station:wmo:42045:1,2006-03-04T08:39:00Z,26.2168,-96.4998,4.0,3.979170768,114.1821523,6.31,'11111222,11111222,11111222' 
TABS,ioos:station:wmo:42045:1,2006-03-04T09:09:00Z,26.2168,-96.4998,4.0,4.429864558,120.6757438,6.99,'11111222,11111222,11111222' 
TABS,ioos:station:wmo:42045:1,2006-03-04T09:39:00Z,26.2168,-96.4998,4.0,4.939392675,120.4070816,7.59,'11111222,11111222,11111222' 
TABS,ioos:station:wmo:42045:1,2006-03-04T10:09:00Z,26.2168,-96.4998,4.0,4.205294282,122.6700806,6.45,'11111222,11111222,11111222' 
TABS,ioos:station:wmo:42045:1,2006-03-04T10:39:00Z,26.2168,-96.4998,4.0,4.066066896,123.260505,6.49,'11111222,11111222,11111222' 
TABS,ioos:station:wmo:42045:1,2006-03-04T11:09:00Z,26.2168,-96.4998,4.0,4.035554485,121.5241381,6.85,'11111222,11111222,11111222' 
TABS,ioos:station:wmo:42045:1,2006-03-04T11:39:00Z,26.2168,-96.4998,4.0,3.972165656,132.0411427,6.56,'11111222,11111222,11111222' 
TABS,ioos:station:wmo:42045:1,2006-03-04T12:09:00Z,26.2168,-96.4998,4.0,4.147059199,118.0484611,6.42,'11111222,11111222,11111222' 
TABS,ioos:station:wmo:42045:1,2006-03-04T12:39:00Z,26.2168,-96.4998,4.0,4.503520845,116.2240298,7.09,'11111222,11111222,11111222' 
TABS,ioos:station:wmo:42045:1,2006-03-04T13:09:00Z,26.2168,-96.4998,4.0,4.773782567,114.9012436,7.06,'11111222,11111222,11111222' 
TABS,ioos:station:wmo:42045:1,2006-03-04T13:39:00Z,26.2168,-96.4998,4.0,4.871242141,117.775331,7.72,'11111222,11111222,11111222' 
TABS,ioos:station:wmo:42045:1,2006-03-04T14:09:00Z,26.2168,-96.4998,4.0,4.963809021,125.3233257,7.19,'11111222,11111222,11111222' 
TABS,ioos:station:wmo:42045:1,2006-03-04T14:39:00Z,26.2168,-96.4998,4.0,4.6222289,127.4404428,6.98,'11111222,11111222,11111222' 
TABS,ioos:station:wmo:42045:1,2006-03-04T15:09:00Z,26.2168,-96.4998,4.0,4.062634613,140.3933614,6.33,'11111222,11111222,11111222' 
TABS,ioos:station:wmo:42045:1,2006-03-04T15:39:00Z,26.2168,-96.4998,4.0,4.497999555,133.919394,7.02,'11111222,11111222,11111222' 
TABS,ioos:station:wmo:42045:1,2006-03-04T16:09:00Z,26.2168,-96.4998,4.0,4.40541712,135.4601425,7.05,'11111222,11111222,11111222' 
TABS,ioos:station:wmo:42045:1,2006-03-04T16:39:00Z,26.2168,-96.4998,4.0,4.268137767,139.180604,6.38,'11111222,11111222,11111222' 
TABS,ioos:station:wmo:42045:1,2006-03-04T17:09:00Z,26.2168,-96.4998,4.0,4.763874474,132.3630045,7.05,'11111222,11111222,11111222' 
TABS,ioos:station:wmo:42045:1,2006-03-04T17:39:00Z,26.2168,-96.4998,4.0,4.505840654,129.2360548,6.88,'11111222,11111222,11111222' 
TABS,ioos:station:wmo:42045:1,2006-03-04T18:09:00Z,26.2168,-96.4998,4.0,4.544029049,129.8220431,6.53,'11111222,11111222,11111222' 
TABS,ioos:station:wmo:42045:1,2006-03-04T18:39:00Z,26.2168,-96.4998,4.0,4.501777427,129.7733076,6.52,'11111222,11111222,11111222' 
TABS,ioos:station:wmo:42045:1,2006-03-04T19:09:00Z,26.2168,-96.4998,4.0,4.478760989,130.018832,6.72,'11111222,11111222,11111222' 
TABS,ioos:station:wmo:42045:1,2006-03-04T19:39:00Z,26.2168,-96.4998,4.0,4.174326293,124.2614437,6.18,'11111222,11111222,11111222' 
TABS,ioos:station:wmo:42045:1,2006-03-04T20:09:00Z,26.2168,-96.4998,4.0,4.285463802,128.3678166,6.47,'11111222,11111222,11111222' 
TABS,ioos:station:wmo:42045:1,2006-03-04T20:39:00Z,26.2168,-96.4998,4.0,4.465075587,125.6125998,6.61,'11111222,11111222,11111222' 
TABS,ioos:station:wmo:42045:1,2006-03-04T21:09:00Z,26.2168,-96.4998,4.0,4.568872946,124.8382563,6.47,'11111222,11111222,11111222' 
TABS,ioos:station:wmo:42045:1,2006-03-04T21:39:00Z,26.2168,-96.4998,4.0,5.023116562,123.0576839,7.26,'11111222,11111222,11111222' 